Simultaneous Nadir Overpasses (SNOs) Predictions

Prediction of SNOs between LANDSAT-8 and METOP-A Satellite Orbit:

Table of predicted SNOs for the next 14.0 days since TLE Epoch: 4/10/2021
Index Date (LANDSAT-8) Time (LANDSAT-8) Lat,Lon (LANDSAT-8) SZA (LANDSAT-8 ) Date (METOP-A) Time (METOP-A) Lat,Lon (METOP-A) SZA (METOP-A ) Distance(km) Time Diff (sec)
1 04/10/2021 11:31:57 81.42, 51.57 75.75 04/10/2021 11:31:47 81.41, 51.42 75.72 2.66 10
2 04/10/2021 12:21:24 -81.42,-140.89 104.28 04/10/2021 12:22:27 -81.41,-141.07 104.28 3.17 63
3 04/13/2021 07:06:11 81.42, 118.04 74.75 04/13/2021 07:06:08 81.41, 117.87 74.72 3.13 3
4 04/13/2021 07:55:39 -81.40, -74.77 105.33 04/13/2021 07:56:48 -81.40, -74.58 105.28 3.20 69
5 04/16/2021 01:50:58 -81.42, 16.78 106.24 04/16/2021 01:49:48 -81.42, 16.62 106.29 2.66 70
6 04/16/2021 02:40:24 81.42,-175.52 73.76 04/16/2021 02:40:28 81.41,-175.70 73.74 3.32 4
7 04/18/2021 21:25:12 -81.42, 83.21 107.20 04/18/2021 21:24:09 -81.41, 83.07 107.25 2.41 63
8 04/18/2021 22:14:38 81.42,-109.12 72.79 04/18/2021 22:14:49 81.40,-109.28 72.77 3.19 11
9 04/21/2021 16:59:26 -81.42, 149.60 108.15 04/21/2021 16:58:30 -81.41, 149.50 108.19 1.87 56



Historial Predications of SNOs between LANDSAT-8 and METOP-A
